Starlink 11258

operational
NORAD ID: 62598 Int'l Des: 2025-008 Owner: SPXS Country: US Constellation: starlink
LEOCIRCULAR

About Starlink 11258

Description loading...

Live Position

Loading 3D Globe...

Upcoming Passes

Altitude History

Altitude vs Time

uPlot chart will show altitude changes over time

Two-Line Element Set

1 62598U 25008M 25350.19483423 .00210981 00000-0 16007-2 0 9991
2 62598 43.0022 269.3527 0002887 273.5962 86.4576 15.70922539 54150
Epoch: Dec 16, 2025 • Age: 27 hours

Current Status

Altitude 354.2 km
Velocity 7.70 km/s
Sub-Earth Point 1.51°N, 55.64°E
Launch Date Jan 13, 2025
Age 0.9 years
Type internet

Technical Details

Classification Payload
Mass 960.00 kg
Dry Mass 910.00 kg
Total Mass 960.00 kg
Length 0.30 m
Diameter 4.10 m
Span 29.00 m
Shape Box + pan
Manufacturer SPXS
Bus Type Starlink V2MD
Phase Status In Orbit
Owner/State SPXS/US

Large Constellations

Loading constellations...